�������l�o���
Date,Time,MP-1(��Sv/h),MP-2(��Sv/h),MP-3(��Sv/h),MP-4(��Sv/h),MP-5(��Sv/h),MP-6(��Sv/h),MP-7(��Sv/h),MP-8(��Sv/h),����,����(m/s),���J
2023/10/19,00:00,0.518,0.790,0.488,0.984,0.706,0.317,0.565,0.529,��쐼,6.7,��
2023/10/19,00:10,0.519,0.786,0.489,0.984,0.707,0.318,0.566,0.528,��쐼,7.4,��
2023/10/19,00:20,0.516,0.788,0.489,0.983,0.705,0.318,0.565,0.527,��쐼,8.7,��
2023/10/19,00:30,0.518,0.790,0.488,0.985,0.706,0.318,0.567,0.526,��쐼,9.0,��
2023/10/19,00:40,0.517,0.788,0.490,0.985,0.707,0.319,0.566,0.526,��,9.0,��
2023/10/19,00:50,0.518,0.787,0.490,0.985,0.706,0.318,0.565,0.527,��쐼,7.7,��
2023/10/19,01:00,0.516,0.791,0.489,0.983,0.706,0.318,0.566,0.528,��쐼,7.8,��
2023/10/19,01:10,0.517,0.789,0.489,0.983,0.706,0.318,0.565,0.528,��쐼,8.2,��
2023/10/19,01:20,0.518,0.788,0.489,0.984,0.707,0.319,0.566,0.528,��쐼,8.4,��
2023/10/19,01:30,0.517,0.788,0.489,0.984,0.706,0.318,0.567,0.526,��쐼,7.5,��
2023/10/19,01:40,0.520,0.789,0.487,0.986,0.706,0.318,0.566,0.528,��쐼,6.1,��
2023/10/19,01:50,0.517,0.788,0.487,0.985,0.706,0.317,0.564,0.528,�쐼,5.2,��
2023/10/19,02:00,0.519,0.788,0.488,0.984,0.704,0.318,0.565,0.528,�쐼,5.0,��
2023/10/19,02:10,0.518,0.787,0.488,0.984,0.706,0.319,0.567,0.527,�쐼,4.3,��
2023/10/19,02:20,0.518,0.788,0.488,0.985,0.706,0.318,0.565,0.528,�쐼,1.7,��
2023/10/19,02:30,0.518,0.786,0.488,0.983,0.704,0.318,0.567,0.529,-,CALM,��
2023/10/19,02:40,0.517,0.786,0.489,0.985,0.705,0.318,0.566,0.527,���쓌,1.1,��
2023/10/19,02:50,0.518,0.788,0.488,0.984,0.705,0.319,0.564,0.527,-,CALM,��
2023/10/19,03:00,0.519,0.788,0.489,0.984,0.705,0.317,0.566,0.528,�k�k��,0.8,��
2023/10/19,03:10,0.517,0.789,0.489,0.985,0.710,0.317,0.565,0.528,�k�k��,0.9,��
2023/10/19,03:20,0.518,0.788,0.489,0.985,0.705,0.318,0.565,0.529,���k��,1.4,��
2023/10/19,03:30,0.517,0.788,0.489,0.985,0.705,0.318,0.566,0.527,��,1.5,��
2023/10/19,03:40,0.517,0.789,0.488,0.983,0.706,0.318,0.565,0.528,��,1.9,��
2023/10/19,03:50,0.517,0.787,0.487,0.983,0.705,0.318,0.565,0.528,��,1.9,��
2023/10/19,04:00,0.518,0.789,0.488,0.984,0.705,0.319,0.564,0.527,���쐼,1.2,��
2023/10/19,04:10,0.518,0.788,0.489,0.984,0.706,0.318,0.566,0.528,�k��,1.7,��
2023/10/19,04:20,0.516,0.788,0.488,0.983,0.708,0.317,0.566,0.527,�k��,2.2,��
2023/10/19,04:30,0.518,0.786,0.488,0.985,0.706,0.318,0.565,0.528,���k��,4.0,��
2023/10/19,04:40,0.518,0.786,0.487,0.984,0.706,0.320,0.565,0.527,�k��,3.2,��
2023/10/19,04:50,0.516,0.788,0.489,0.987,0.704,0.318,0.565,0.528,�k��,2.3,��
2023/10/19,05:00,0.516,0.787,0.489,0.983,0.706,0.317,0.567,0.528,�k��,3.2,��
2023/10/19,05:10,0.517,0.787,0.488,0.985,0.707,0.319,0.566,0.528,�k�k��,2.3,��
2023/10/19,05:20,0.517,0.787,0.488,0.984,0.704,0.317,0.566,0.528,���k��,1.2,��
2023/10/19,05:30,0.516,0.787,0.488,0.985,0.707,0.319,0.565,0.529,���쐼,1.2,��
2023/10/19,05:40,0.516,0.787,0.488,0.984,0.704,0.318,0.564,0.528,���k��,2.5,��
2023/10/19,05:50,0.517,0.786,0.488,0.986,0.705,0.318,0.566,0.527,�k��,2.2,��
2023/10/19,06:00,0.518,0.789,0.488,0.985,0.705,0.318,0.564,0.528,���k��,1.4,��
2023/10/19,06:10,0.516,0.788,0.488,0.984,0.705,0.319,0.565,0.528,���k��,2.6,��
2023/10/19,06:20,0.518,0.787,0.487,0.988,0.706,0.319,0.565,0.528,���k��,4.0,��
2023/10/19,06:30,0.517,0.785,0.488,0.986,0.706,0.318,0.567,0.528,�k��,3.5,��
2023/10/19,06:40,0.517,0.788,0.489,0.986,0.707,0.316,0.564,0.527,���k��,3.4,��
2023/10/19,06:50,0.516,0.788,0.488,0.984,0.707,0.317,0.565,0.528,�k��,3.1,��
2023/10/19,07:00,0.517,0.788,0.488,0.986,0.705,0.318,0.565,0.529,��,2.2,��
2023/10/19,07:10,0.518,0.790,0.488,0.982,0.704,0.317,0.566,0.529,���쐼,1.7,��
2023/10/19,07:20,0.518,0.789,0.488,0.987,0.705,0.319,0.565,0.528,��,2.2,��
2023/10/19,07:30,0.518,0.789,0.489,0.986,0.705,0.319,0.567,0.528,���쐼,2.2,��
2023/10/19,07:40,0.519,0.788,0.489,0.987,0.706,0.318,0.565,0.528,�쐼,2.0,��
2023/10/19,07:50,0.518,0.787,0.490,0.985,0.704,0.318,0.565,0.530,��쐼,2.0,��
2023/10/19,08:00,0.517,0.789,0.490,0.986,0.706,0.318,0.566,0.528,��쐼,1.4,��
2023/10/19,08:10,0.518,0.787,0.487,0.986,0.706,0.318,0.566,0.528,��쐼,1.7,��
2023/10/19,08:20,0.520,0.790,0.490,0.987,0.707,0.318,0.565,0.528,��,2.2,��
2023/10/19,08:30,0.519,0.788,0.489,0.986,0.706,0.318,0.565,0.530,��쓌,1.7,��
2023/10/19,08:40,0.516,0.787,0.489,0.987,0.705,0.318,0.564,0.529,��쓌,2.2,��
2023/10/19,08:50,0.517,0.787,0.490,0.988,0.707,0.318,0.566,0.529,��,2.3,��
2023/10/19,09:00,0.516,0.788,0.489,0.988,0.706,0.318,0.564,0.528,��,1.7,��
2023/10/19,09:10,0.516,0.786,0.488,0.986,0.704,0.318,0.565,0.529,��쓌,2.6,��
2023/10/19,09:20,0.517,0.783,0.489,0.988,0.704,0.316,0.563,0.530,��쓌,2.2,��
2023/10/19,09:30,0.519,0.787,0.490,0.989,0.704,0.318,0.563,0.529,��쓌,3.0,��
2023/10/19,09:40,0.519,0.788,0.490,0.987,0.705,0.316,0.564,0.528,��쓌,3.1,��
2023/10/19,09:50,0.518,0.786,0.491,0.988,0.703,0.316,0.564,0.528,�쓌,2.8,��
2023/10/19,10:00,0.519,0.788,0.489,0.987,0.706,0.318,0.564,0.526,��쓌,2.6,��
2023/10/19,10:10,0.519,0.789,0.487,0.985,0.705,0.316,0.564,0.525,�쓌,2.5,��
2023/10/19,10:20,0.519,0.788,0.488,0.987,0.705,0.319,0.564,0.525,���쓌,2.0,��
2023/10/19,10:30,0.521,0.789,0.488,0.986,0.708,0.317,0.564,0.528,���쓌,1.2,��
2023/10/19,10:40,0.519,0.788,0.488,0.989,0.709,0.316,0.564,0.527,�쓌,2.6,��
2023/10/19,10:50,0.519,0.789,0.488,0.985,0.707,0.317,0.565,0.526,�쓌,2.5,��
2023/10/19,11:00,0.519,0.788,0.488,0.987,0.709,0.317,0.564,0.528,�쓌,3.1,��
2023/10/19,11:10,0.518,0.789,0.488,0.988,0.706,0.317,0.566,0.526,�쓌,2.8,��
2023/10/19,11:20,0.520,0.789,0.489,0.987,0.707,0.317,0.565,0.528,�쓌,2.6,��
2023/10/19,11:30,0.520,0.790,0.489,0.987,0.707,0.317,0.568,0.527,��쓌,3.1,��
2023/10/19,11:40,0.520,0.790,0.488,0.986,0.708,0.317,0.567,0.526,��쓌,3.8,��
2023/10/19,11:50,0.520,0.792,0.490,0.991,0.708,0.316,0.566,0.526,�쓌,3.9,��
2023/10/19,12:00,0.519,0.790,0.488,0.988,0.708,0.316,0.565,0.528,��쓌,4.5,��
2023/10/19,12:10,0.519,0.790,0.489,0.990,0.709,0.317,0.567,0.526,��쓌,6.1,��
2023/10/19,12:20,0.520,0.792,0.490,0.990,0.709,0.317,0.566,0.527,��쓌,6.1,��
2023/10/19,12:30,0.521,0.791,0.489,0.989,0.708,0.317,0.567,0.527,��쓌,7.2,��
2023/10/19,12:40,0.520,0.791,0.490,0.989,0.708,0.318,0.567,0.527,��쓌,6.4,��
2023/10/19,12:50,0.519,0.791,0.489,0.989,0.710,0.318,0.567,0.528,��쓌,7.8,��
2023/10/19,13:00,0.520,0.789,0.489,0.988,0.709,0.317,0.565,0.528,��쓌,7.1,��
2023/10/19,13:10,0.520,0.791,0.490,0.989,0.710,0.318,0.564,0.527,��쓌,8.2,��
2023/10/19,13:20,0.519,0.790,0.488,0.988,0.708,0.316,0.565,0.527,��쓌,8.2,��
2023/10/19,13:30,0.519,0.791,0.489,0.988,0.708,0.317,0.566,0.528,��쓌,7.6,��
2023/10/19,13:40,0.520,0.789,0.489,0.988,0.709,0.317,0.564,0.527,��쓌,7.4,��
2023/10/19,13:50,0.520,0.789,0.489,0.989,0.709,0.318,0.565,0.527,��쓌,8.3,��
2023/10/19,14:00,0.520,0.792,0.489,0.988,0.709,0.318,0.563,0.526,��쓌,8.5,��
2023/10/19,14:10,0.520,0.790,0.490,0.990,0.711,0.317,0.566,0.526,��쓌,7.8,��
2023/10/19,14:20,0.520,0.791,0.489,0.987,0.708,0.320,0.567,0.528,��쓌,8.3,��
2023/10/19,14:30,0.521,0.790,0.489,0.989,0.695,0.319,0.566,0.529,��쓌,7.7,��
2023/10/19,14:40,0.520,0.791,0.490,0.988,0.708,0.317,0.566,0.527,��쓌,6.8,��
2023/10/19,14:50,0.520,0.788,0.492,0.988,0.710,0.315,0.565,0.525,��쓌,7.3,��
2023/10/19,15:00,0.519,0.790,0.490,0.988,0.709,0.318,0.566,0.528,��쓌,6.2,��
2023/10/19,15:10,0.520,0.790,0.490,0.988,0.710,0.319,0.567,0.527,��쓌,5.0,��
2023/10/19,15:20,0.519,0.791,0.490,0.989,0.711,0.317,0.565,0.528,��쓌,6.1,��
2023/10/19,15:30,0.519,0.790,0.488,0.989,0.710,0.318,0.566,0.527,��쓌,5.9,��
2023/10/19,15:40,0.521,0.788,0.489,0.989,0.710,0.318,0.567,0.527,��쓌,5.2,��
2023/10/19,15:50,0.519,0.789,0.490,0.989,0.710,0.319,0.566,0.526,��쓌,5.1,��
2023/10/19,16:00,0.518,0.791,0.488,0.990,0.708,0.320,0.567,0.528,��,4.2,��
2023/10/19,16:10,0.519,0.790,0.488,0.990,0.711,0.319,0.567,0.527,��쓌,3.7,��
2023/10/19,16:20,0.521,0.791,0.491,0.989,0.709,0.318,0.566,0.529,��,3.0,��
2023/10/19,16:30,0.521,0.792,0.491,0.989,0.708,0.319,0.568,0.527,��,2.9,��
2023/10/19,16:40,0.520,0.791,0.489,0.990,0.710,0.320,0.568,0.529,��쐼,3.8,��
2023/10/19,16:50,0.518,0.792,0.490,0.990,0.711,0.319,0.567,0.528,��쐼,4.1,��
2023/10/19,17:00,0.519,0.792,0.488,0.990,0.713,0.320,0.568,0.529,�쐼,4.3,��
2023/10/19,17:10,0.519,0.794,0.489,0.990,0.712,0.320,0.569,0.529,�쐼,3.2,��
2023/10/19,17:20,0.520,0.793,0.491,0.989,0.712,0.319,0.567,0.529,�쐼,2.8,��
2023/10/19,17:30,0.520,0.792,0.491,0.989,0.714,0.320,0.569,0.529,�쐼,2.2,��
2023/10/19,17:40,0.521,0.792,0.491,0.990,0.712,0.320,0.568,0.529,�쐼,2.9,��
2023/10/19,17:50,0.522,0.794,0.492,0.991,0.712,0.319,0.568,0.529,�쐼,3.4,��
2023/10/19,18:00,0.522,0.792,0.491,0.991,0.713,0.319,0.568,0.530,�쐼,4.6,��
2023/10/19,18:10,0.522,0.796,0.492,0.989,0.713,0.320,0.569,0.529,��쐼,4.6,��
2023/10/19,18:20,0.522,0.794,0.492,0.989,0.714,0.319,0.570,0.529,�쐼,3.8,��
2023/10/19,18:30,0.521,0.795,0.492,0.990,0.712,0.320,0.568,0.530,�쐼,3.5,��
2023/10/19,18:40,0.522,0.795,0.492,0.991,0.712,0.320,0.569,0.529,�쐼,3.8,��
2023/10/19,18:50,0.521,0.793,0.490,0.991,0.711,0.320,0.569,0.528,�쐼,3.5,��
2023/10/19,19:00,0.522,0.795,0.492,0.990,0.715,0.319,0.569,0.530,�쐼,4.6,��
2023/10/19,19:10,0.520,0.794,0.491,0.990,0.712,0.321,0.568,0.530,�쐼,5.2,��
2023/10/19,19:20,0.522,0.794,0.491,0.990,0.712,0.320,0.569,0.529,�쐼,5.2,��
2023/10/19,19:30,0.522,0.794,0.492,0.990,0.712,0.320,0.568,0.529,�쐼,5.3,��
2023/10/19,19:40,0.520,0.795,0.492,0.990,0.714,0.319,0.569,0.529,�쐼,4.5,��
2023/10/19,19:50,0.520,0.794,0.491,0.992,0.713,0.319,0.569,0.530,�쐼,5.3,��
2023/10/19,20:00,0.521,0.792,0.491,0.990,0.713,0.320,0.569,0.529,�쐼,6.2,��
2023/10/19,20:10,0.522,0.792,0.491,0.989,0.712,0.320,0.569,0.529,�쐼,5.4,��
2023/10/19,20:20,0.522,0.793,0.492,0.992,0.711,0.319,0.568,0.530,�쐼,5.5,��
2023/10/19,20:30,0.524,0.793,0.490,0.988,0.712,0.320,0.569,0.529,�쐼,5.4,��
2023/10/19,20:40,0.524,0.793,0.490,0.990,0.715,0.320,0.568,0.528,�쐼,3.0,��
2023/10/19,20:50,0.520,0.793,0.490,0.990,0.712,0.320,0.570,0.529,��쐼,3.7,��
2023/10/19,21:00,0.522,0.791,0.492,0.990,0.714,0.321,0.568,0.530,��쐼,3.8,��
2023/10/19,21:10,0.522,0.795,0.492,0.992,0.711,0.320,0.570,0.530,��,3.8,��
2023/10/19,21:20,0.523,0.792,0.492,0.988,0.713,0.321,0.567,0.530,��쓌,2.6,��
2023/10/19,21:30,0.523,0.794,0.492,0.992,0.714,0.320,0.569,0.531,��,3.5,��
2023/10/19,21:40,0.522,0.794,0.491,0.989,0.712,0.320,0.569,0.529,��,3.5,��
2023/10/19,21:50,0.521,0.793,0.490,0.990,0.714,0.320,0.567,0.528,��,3.3,��
2023/10/19,22:00,0.522,0.796,0.490,0.990,0.712,0.321,0.569,0.529,��쐼,2.8,��
2023/10/19,22:10,0.522,0.793,0.490,0.993,0.714,0.319,0.570,0.529,�쐼,2.3,��
2023/10/19,22:20,0.521,0.793,0.490,0.990,0.714,0.320,0.567,0.529,�쐼,2.3,��
2023/10/19,22:30,0.523,0.793,0.491,0.991,0.712,0.320,0.569,0.528,��,2.6,��
2023/10/19,22:40,0.522,0.795,0.490,0.992,0.713,0.320,0.568,0.530,��쐼,3.0,��
2023/10/19,22:50,0.521,0.794,0.490,0.989,0.713,0.320,0.567,0.531,�쐼,2.5,��
2023/10/19,23:00,0.521,0.793,0.491,0.990,0.712,0.320,0.568,0.529,��쐼,3.9,��
2023/10/19,23:10,0.521,0.793,0.491,0.990,0.712,0.320,0.567,0.529,��쐼,4.7,��
2023/10/19,23:20,0.523,0.793,0.491,0.990,0.712,0.319,0.568,0.529,�쐼,4.4,��
2023/10/19,23:30,0.520,0.791,0.490,0.991,0.712,0.320,0.569,0.529,��쐼,3.8,��
2023/10/19,23:40,0.521,0.792,0.492,0.991,0.712,0.319,0.566,0.529,��쐼,3.6,��
2023/10/19,23:50,0.521,0.793,0.491,0.990,0.712,0.319,0.568,0.530,��쐼,3.9,��
